owner,sensor,date,latitude,longitude,vertical_datum,sea_water_temperature,qcFlag 
COMPS,ioos:station:USF.COMPS:NFB:1,2009-06-01T00:00:00Z,25.0840,-81.0960,-1.0,29.92,2 
COMPS,ioos:station:USF.COMPS:NFB:1,2009-06-01T00:06:00Z,25.0840,-81.0960,-1.0,29.93,2 
COMPS,ioos:station:USF.COMPS:NFB:1,2009-06-01T00:12:00Z,25.0840,-81.0960,-1.0,29.91,2 
COMPS,ioos:station:USF.COMPS:NFB:1,2009-06-01T00:18:00Z,25.0840,-81.0960,-1.0,29.9,2 
COMPS,ioos:station:USF.COMPS:NFB:1,2009-06-01T00:24:00Z,25.0840,-81.0960,-1.0,29.89,2 
COMPS,ioos:station:USF.COMPS:NFB:1,2009-06-01T00:30:00Z,25.0840,-81.0960,-1.0,29.87,2 
COMPS,ioos:station:USF.COMPS:NFB:1,2009-06-01T00:36:00Z,25.0840,-81.0960,-1.0,29.86,2 
COMPS,ioos:station:USF.COMPS:NFB:1,2009-06-01T00:42:00Z,25.0840,-81.0960,-1.0,29.85,2 
COMPS,ioos:station:USF.COMPS:NFB:1,2009-06-01T00:48:00Z,25.0840,-81.0960,-1.0,29.82,2 
COMPS,ioos:station:USF.COMPS:NFB:1,2009-06-01T00:54:00Z,25.0840,-81.0960,-1.0,29.81,2 
COMPS,ioos:station:USF.COMPS:NFB:1,2009-06-01T01:00:00Z,25.0840,-81.0960,-1.0,29.8,2 
COMPS,ioos:station:USF.COMPS:NFB:1,2009-06-01T01:06:00Z,25.0840,-81.0960,-1.0,29.8,2 
COMPS,ioos:station:USF.COMPS:NFB:1,2009-06-01T01:12:00Z,25.0840,-81.0960,-1.0,29.8,2 
COMPS,ioos:station:USF.COMPS:NFB:1,2009-06-01T01:18:00Z,25.0840,-81.0960,-1.0,29.77,2 
COMPS,ioos:station:USF.COMPS:NFB:1,2009-06-01T01:24:00Z,25.0840,-81.0960,-1.0,29.77,2 
COMPS,ioos:station:USF.COMPS:NFB:1,2009-06-01T01:30:00Z,25.0840,-81.0960,-1.0,29.77,2 
COMPS,ioos:station:USF.COMPS:NFB:1,2009-06-01T01:36:00Z,25.0840,-81.0960,-1.0,29.75,2 
COMPS,ioos:station:USF.COMPS:NFB:1,2009-06-01T01:42:00Z,25.0840,-81.0960,-1.0,29.75,2 
COMPS,ioos:station:USF.COMPS:NFB:1,2009-06-01T01:48:00Z,25.0840,-81.0960,-1.0,29.72,2 
COMPS,ioos:station:USF.COMPS:NFB:1,2009-06-01T01:54:00Z,25.0840,-81.0960,-1.0,29.68,2 
COMPS,ioos:station:USF.COMPS:NFB:1,2009-06-01T02:00:00Z,25.0840,-81.0960,-1.0,29.68,2 
COMPS,ioos:station:USF.COMPS:NFB:1,2009-06-01T02:06:00Z,25.0840,-81.0960,-1.0,29.66,2 
COMPS,ioos:station:USF.COMPS:NFB:1,2009-06-01T02:12:00Z,25.0840,-81.0960,-1.0,29.66,2 
COMPS,ioos:station:USF.COMPS:NFB:1,2009-06-01T02:18:00Z,25.0840,-81.0960,-1.0,29.66,2 
COMPS,ioos:station:USF.COMPS:NFB:1,2009-06-01T02:24:00Z,25.0840,-81.0960,-1.0,29.65,2 
COMPS,ioos:station:USF.COMPS:NFB:1,2009-06-01T02:30:00Z,25.0840,-81.0960,-1.0,29.64,2 
COMPS,ioos:station:USF.COMPS:NFB:1,2009-06-01T02:36:00Z,25.0840,-81.0960,-1.0,29.63,2 
COMPS,ioos:station:USF.COMPS:NFB:1,2009-06-01T02:42:00Z,25.0840,-81.0960,-1.0,29.6,2 
COMPS,ioos:station:USF.COMPS:NFB:1,2009-06-01T02:48:00Z,25.0840,-81.0960,-1.0,29.58,2 
COMPS,ioos:station:USF.COMPS:NFB:1,2009-06-01T02:54:00Z,25.0840,-81.0960,-1.0,29.62,2 
COMPS,ioos:station:USF.COMPS:NFB:1,2009-06-01T03:00:00Z,25.0840,-81.0960,-1.0,29.6,2 
COMPS,ioos:station:USF.COMPS:NFB:1,2009-06-01T03:06:00Z,25.0840,-81.0960,-1.0,29.57,2 
COMPS,ioos:station:USF.COMPS:NFB:1,2009-06-01T03:12:00Z,25.0840,-81.0960,-1.0,29.56,2 
COMPS,ioos:station:USF.COMPS:NFB:1,2009-06-01T03:18:00Z,25.0840,-81.0960,-1.0,29.56,2 
COMPS,ioos:station:USF.COMPS:NFB:1,2009-06-01T03:24:00Z,25.0840,-81.0960,-1.0,29.56,2 
COMPS,ioos:station:USF.COMPS:NFB:1,2009-06-01T03:30:00Z,25.0840,-81.0960,-1.0,29.58,2 
COMPS,ioos:station:USF.COMPS:NFB:1,2009-06-01T03:36:00Z,25.0840,-81.0960,-1.0,29.59,2 
COMPS,ioos:station:USF.COMPS:NFB:1,2009-06-01T03:42:00Z,25.0840,-81.0960,-1.0,29.61,2 
COMPS,ioos:station:USF.COMPS:NFB:1,2009-06-01T03:48:00Z,25.0840,-81.0960,-1.0,29.63,2 
COMPS,ioos:station:USF.COMPS:NFB:1,2009-06-01T03:54:00Z,25.0840,-81.0960,-1.0,29.65,2 
COMPS,ioos:station:USF.COMPS:NFB:1,2009-06-01T04:06:00Z,25.0840,-81.0960,-1.0,29.68,2 
COMPS,ioos:station:USF.COMPS:NFB:1,2009-06-01T04:12:00Z,25.0840,-81.0960,-1.0,29.7,2 
COMPS,ioos:station:USF.COMPS:NFB:1,2009-06-01T04:18:00Z,25.0840,-81.0960,-1.0,29.72,2 
COMPS,ioos:station:USF.COMPS:NFB:1,2009-06-01T04:24:00Z,25.0840,-81.0960,-1.0,29.72,2 
COMPS,ioos:station:USF.COMPS:NFB:1,2009-06-01T04:30:00Z,25.0840,-81.0960,-1.0,29.72,2 
COMPS,ioos:station:USF.COMPS:NFB:1,2009-06-01T04:36:00Z,25.0840,-81.0960,-1.0,29.72,2 
COMPS,ioos:station:USF.COMPS:NFB:1,2009-06-01T04:42:00Z,25.0840,-81.0960,-1.0,29.72,2 
COMPS,ioos:station:USF.COMPS:NFB:1,2009-06-01T04:48:00Z,25.0840,-81.0960,-1.0,29.71,2 
COMPS,ioos:station:USF.COMPS:NFB:1,2009-06-01T04:54:00Z,25.0840,-81.0960,-1.0,29.71,2 
COMPS,ioos:station:USF.COMPS:NFB:1,2009-06-01T05:00:00Z,25.0840,-81.0960,-1.0,29.7,2 
COMPS,ioos:station:USF.COMPS:NFB:1,2009-06-01T05:06:00Z,25.0840,-81.0960,-1.0,29.7,2 
COMPS,ioos:station:USF.COMPS:NFB:1,2009-06-01T05:12:00Z,25.0840,-81.0960,-1.0,29.68,2 
COMPS,ioos:station:USF.COMPS:NFB:1,2009-06-01T05:18:00Z,25.0840,-81.0960,-1.0,29.65,2 
COMPS,ioos:station:USF.COMPS:NFB:1,2009-06-01T05:24:00Z,25.0840,-81.0960,-1.0,29.62,2 
COMPS,ioos:station:USF.COMPS:NFB:1,2009-06-01T05:30:00Z,25.0840,-81.0960,-1.0,29.59,2 
COMPS,ioos:station:USF.COMPS:NFB:1,2009-06-01T05:36:00Z,25.0840,-81.0960,-1.0,29.57,2 
COMPS,ioos:station:USF.COMPS:NFB:1,2009-06-01T05:42:00Z,25.0840,-81.0960,-1.0,29.55,2 
COMPS,ioos:station:USF.COMPS:NFB:1,2009-06-01T05:48:00Z,25.0840,-81.0960,-1.0,29.53,2 
COMPS,ioos:station:USF.COMPS:NFB:1,2009-06-01T05:54:00Z,25.0840,-81.0960,-1.0,29.51,2 
COMPS,ioos:station:USF.COMPS:NFB:1,2009-06-01T06:00:00Z,25.0840,-81.0960,-1.0,29.49,2 
COMPS,ioos:station:USF.COMPS:NFB:1,2009-06-01T06:06:00Z,25.0840,-81.0960,-1.0,29.47,2 
COMPS,ioos:station:USF.COMPS:NFB:1,2009-06-01T06:12:00Z,25.0840,-81.0960,-1.0,29.46,2 
COMPS,ioos:station:USF.COMPS:NFB:1,2009-06-01T06:18:00Z,25.0840,-81.0960,-1.0,29.45,2 
COMPS,ioos:station:USF.COMPS:NFB:1,2009-06-01T06:24:00Z,25.0840,-81.0960,-1.0,29.44,2 
COMPS,ioos:station:USF.COMPS:NFB:1,2009-06-01T06:30:00Z,25.0840,-81.0960,-1.0,29.42,2 
COMPS,ioos:station:USF.COMPS:NFB:1,2009-06-01T06:36:00Z,25.0840,-81.0960,-1.0,29.42,2 
COMPS,ioos:station:USF.COMPS:NFB:1,2009-06-01T06:42:00Z,25.0840,-81.0960,-1.0,29.42,2 
COMPS,ioos:station:USF.COMPS:NFB:1,2009-06-01T06:48:00Z,25.0840,-81.0960,-1.0,29.41,2 
COMPS,ioos:station:USF.COMPS:NFB:1,2009-06-01T06:54:00Z,25.0840,-81.0960,-1.0,29.41,2 
COMPS,ioos:station:USF.COMPS:NFB:1,2009-06-01T07:00:00Z,25.0840,-81.0960,-1.0,29.41,2 
COMPS,ioos:station:USF.COMPS:NFB:1,2009-06-01T07:06:00Z,25.0840,-81.0960,-1.0,29.42,2 
COMPS,ioos:station:USF.COMPS:NFB:1,2009-06-01T07:12:00Z,25.0840,-81.0960,-1.0,29.43,2 
COMPS,ioos:station:USF.COMPS:NFB:1,2009-06-01T07:18:00Z,25.0840,-81.0960,-1.0,29.46,2 
COMPS,ioos:station:USF.COMPS:NFB:1,2009-06-01T07:24:00Z,25.0840,-81.0960,-1.0,29.47,2 
COMPS,ioos:station:USF.COMPS:NFB:1,2009-06-01T07:30:00Z,25.0840,-81.0960,-1.0,29.45,2 
COMPS,ioos:station:USF.COMPS:NFB:1,2009-06-01T07:36:00Z,25.0840,-81.0960,-1.0,29.45,2 
COMPS,ioos:station:USF.COMPS:NFB:1,2009-06-01T07:42:00Z,25.0840,-81.0960,-1.0,29.48,2 
COMPS,ioos:station:USF.COMPS:NFB:1,2009-06-01T07:48:00Z,25.0840,-81.0960,-1.0,29.5,2 
COMPS,ioos:station:USF.COMPS:NFB:1,2009-06-01T07:54:00Z,25.0840,-81.0960,-1.0,29.49,2 
COMPS,ioos:station:USF.COMPS:NFB:1,2009-06-01T08:00:00Z,25.0840,-81.0960,-1.0,29.5,2 
COMPS,ioos:station:USF.COMPS:NFB:1,2009-06-01T08:06:00Z,25.0840,-81.0960,-1.0,29.5,2 
COMPS,ioos:station:USF.COMPS:NFB:1,2009-06-01T08:12:00Z,25.0840,-81.0960,-1.0,29.48,2 
COMPS,ioos:station:USF.COMPS:NFB:1,2009-06-01T08:18:00Z,25.0840,-81.0960,-1.0,29.45,2 
COMPS,ioos:station:USF.COMPS:NFB:1,2009-06-01T08:24:00Z,25.0840,-81.0960,-1.0,29.44,2 
COMPS,ioos:station:USF.COMPS:NFB:1,2009-06-01T08:30:00Z,25.0840,-81.0960,-1.0,29.43,2 
COMPS,ioos:station:USF.COMPS:NFB:1,2009-06-01T08:36:00Z,25.0840,-81.0960,-1.0,29.41,2 
COMPS,ioos:station:USF.COMPS:NFB:1,2009-06-01T08:42:00Z,25.0840,-81.0960,-1.0,29.39,2 
COMPS,ioos:station:USF.COMPS:NFB:1,2009-06-01T08:48:00Z,25.0840,-81.0960,-1.0,29.37,2 
COMPS,ioos:station:USF.COMPS:NFB:1,2009-06-01T08:54:00Z,25.0840,-81.0960,-1.0,29.35,2 
COMPS,ioos:station:USF.COMPS:NFB:1,2009-06-01T09:00:00Z,25.0840,-81.0960,-1.0,29.3,2 
COMPS,ioos:station:USF.COMPS:NFB:1,2009-06-01T09:06:00Z,25.0840,-81.0960,-1.0,29.24,2 
COMPS,ioos:station:USF.COMPS:NFB:1,2009-06-01T09:12:00Z,25.0840,-81.0960,-1.0,29.2,2 
COMPS,ioos:station:USF.COMPS:NFB:1,2009-06-01T09:18:00Z,25.0840,-81.0960,-1.0,29.14,2 
COMPS,ioos:station:USF.COMPS:NFB:1,2009-06-01T09:24:00Z,25.0840,-81.0960,-1.0,29.14,2 
COMPS,ioos:station:USF.COMPS:NFB:1,2009-06-01T09:30:00Z,25.0840,-81.0960,-1.0,29.11,2 
COMPS,ioos:station:USF.COMPS:NFB:1,2009-06-01T09:36:00Z,25.0840,-81.0960,-1.0,29.13,2 
COMPS,ioos:station:USF.COMPS:NFB:1,2009-06-01T09:42:00Z,25.0840,-81.0960,-1.0,29.15,2 
COMPS,ioos:station:USF.COMPS:NFB:1,2009-06-01T09:48:00Z,25.0840,-81.0960,-1.0,29.16,2 
COMPS,ioos:station:USF.COMPS:NFB:1,2009-06-01T09:54:00Z,25.0840,-81.0960,-1.0,29.17,2 
COMPS,ioos:station:USF.COMPS:NFB:1,2009-06-01T10:00:00Z,25.0840,-81.0960,-1.0,29.19,2 
COMPS,ioos:station:USF.COMPS:NFB:1,2009-06-01T10:06:00Z,25.0840,-81.0960,-1.0,29.21,2 
COMPS,ioos:station:USF.COMPS:NFB:1,2009-06-01T10:12:00Z,25.0840,-81.0960,-1.0,29.23,2 
COMPS,ioos:station:USF.COMPS:NFB:1,2009-06-01T10:18:00Z,25.0840,-81.0960,-1.0,29.25,2 
COMPS,ioos:station:USF.COMPS:NFB:1,2009-06-01T10:24:00Z,25.0840,-81.0960,-1.0,29.25,2 
COMPS,ioos:station:USF.COMPS:NFB:1,2009-06-01T10:30:00Z,25.0840,-81.0960,-1.0,29.26,2 
COMPS,ioos:station:USF.COMPS:NFB:1,2009-06-01T10:36:00Z,25.0840,-81.0960,-1.0,29.27,2 
COMPS,ioos:station:USF.COMPS:NFB:1,2009-06-01T10:42:00Z,25.0840,-81.0960,-1.0,29.28,2 
COMPS,ioos:station:USF.COMPS:NFB:1,2009-06-01T10:48:00Z,25.0840,-81.0960,-1.0,29.28,2 
COMPS,ioos:station:USF.COMPS:NFB:1,2009-06-01T10:54:00Z,25.0840,-81.0960,-1.0,29.29,2 
COMPS,ioos:station:USF.COMPS:NFB:1,2009-06-01T11:00:00Z,25.0840,-81.0960,-1.0,29.29,2 
COMPS,ioos:station:USF.COMPS:NFB:1,2009-06-01T11:06:00Z,25.0840,-81.0960,-1.0,29.29,2 
COMPS,ioos:station:USF.COMPS:NFB:1,2009-06-01T11:12:00Z,25.0840,-81.0960,-1.0,29.29,2 
COMPS,ioos:station:USF.COMPS:NFB:1,2009-06-01T11:18:00Z,25.0840,-81.0960,-1.0,29.28,2 
COMPS,ioos:station:USF.COMPS:NFB:1,2009-06-01T11:24:00Z,25.0840,-81.0960,-1.0,29.28,2 
COMPS,ioos:station:USF.COMPS:NFB:1,2009-06-01T11:30:00Z,25.0840,-81.0960,-1.0,29.29,2 
COMPS,ioos:station:USF.COMPS:NFB:1,2009-06-01T11:36:00Z,25.0840,-81.0960,-1.0,29.3,2 
COMPS,ioos:station:USF.COMPS:NFB:1,2009-06-01T11:42:00Z,25.0840,-81.0960,-1.0,29.31,2 
COMPS,ioos:station:USF.COMPS:NFB:1,2009-06-01T11:48:00Z,25.0840,-81.0960,-1.0,29.31,2 
COMPS,ioos:station:USF.COMPS:NFB:1,2009-06-01T11:54:00Z,25.0840,-81.0960,-1.0,29.31,2 
COMPS,ioos:station:USF.COMPS:NFB:1,2009-06-01T12:00:00Z,25.0840,-81.0960,-1.0,29.32,2 
COMPS,ioos:station:USF.COMPS:NFB:1,2009-06-01T12:06:00Z,25.0840,-81.0960,-1.0,29.33,2 
COMPS,ioos:station:USF.COMPS:NFB:1,2009-06-01T12:12:00Z,25.0840,-81.0960,-1.0,29.33,2 
COMPS,ioos:station:USF.COMPS:NFB:1,2009-06-01T12:18:00Z,25.0840,-81.0960,-1.0,29.32,2 
COMPS,ioos:station:USF.COMPS:NFB:1,2009-06-01T12:24:00Z,25.0840,-81.0960,-1.0,29.32,2 
COMPS,ioos:station:USF.COMPS:NFB:1,2009-06-01T12:30:00Z,25.0840,-81.0960,-1.0,29.32,2 
COMPS,ioos:station:USF.COMPS:NFB:1,2009-06-01T12:36:00Z,25.0840,-81.0960,-1.0,29.3,2 
COMPS,ioos:station:USF.COMPS:NFB:1,2009-06-01T12:42:00Z,25.0840,-81.0960,-1.0,29.3,2 
COMPS,ioos:station:USF.COMPS:NFB:1,2009-06-01T12:48:00Z,25.0840,-81.0960,-1.0,29.3,2 
COMPS,ioos:station:USF.COMPS:NFB:1,2009-06-01T12:54:00Z,25.0840,-81.0960,-1.0,29.29,2 
COMPS,ioos:station:USF.COMPS:NFB:1,2009-06-01T13:00:00Z,25.0840,-81.0960,-1.0,29.29,2 
COMPS,ioos:station:USF.COMPS:NFB:1,2009-06-01T13:06:00Z,25.0840,-81.0960,-1.0,29.29,2 
COMPS,ioos:station:USF.COMPS:NFB:1,2009-06-01T13:12:00Z,25.0840,-81.0960,-1.0,29.29,2 
COMPS,ioos:station:USF.COMPS:NFB:1,2009-06-01T13:18:00Z,25.0840,-81.0960,-1.0,29.28,2 
COMPS,ioos:station:USF.COMPS:NFB:1,2009-06-01T13:24:00Z,25.0840,-81.0960,-1.0,29.28,2 
COMPS,ioos:station:USF.COMPS:NFB:1,2009-06-01T13:30:00Z,25.0840,-81.0960,-1.0,29.27,2 
COMPS,ioos:station:USF.COMPS:NFB:1,2009-06-01T13:36:00Z,25.0840,-81.0960,-1.0,29.26,2 
COMPS,ioos:station:USF.COMPS:NFB:1,2009-06-01T13:42:00Z,25.0840,-81.0960,-1.0,29.23,2 
COMPS,ioos:station:USF.COMPS:NFB:1,2009-06-01T13:48:00Z,25.0840,-81.0960,-1.0,29.2,2 
COMPS,ioos:station:USF.COMPS:NFB:1,2009-06-01T13:54:00Z,25.0840,-81.0960,-1.0,29.18,2 
COMPS,ioos:station:USF.COMPS:NFB:1,2009-06-01T14:00:00Z,25.0840,-81.0960,-1.0,29.15,2 
COMPS,ioos:station:USF.COMPS:NFB:1,2009-06-01T14:06:00Z,25.0840,-81.0960,-1.0,29.14,2 
COMPS,ioos:station:USF.COMPS:NFB:1,2009-06-01T14:12:00Z,25.0840,-81.0960,-1.0,29.14,2 
COMPS,ioos:station:USF.COMPS:NFB:1,2009-06-01T14:18:00Z,25.0840,-81.0960,-1.0,29.14,2 
COMPS,ioos:station:USF.COMPS:NFB:1,2009-06-01T14:24:00Z,25.0840,-81.0960,-1.0,29.14,2 
COMPS,ioos:station:USF.COMPS:NFB:1,2009-06-01T14:30:00Z,25.0840,-81.0960,-1.0,29.15,2 
COMPS,ioos:station:USF.COMPS:NFB:1,2009-06-01T14:36:00Z,25.0840,-81.0960,-1.0,29.16,2 
COMPS,ioos:station:USF.COMPS:NFB:1,2009-06-01T14:42:00Z,25.0840,-81.0960,-1.0,29.17,2 
COMPS,ioos:station:USF.COMPS:NFB:1,2009-06-01T14:48:00Z,25.0840,-81.0960,-1.0,29.18,2 
COMPS,ioos:station:USF.COMPS:NFB:1,2009-06-01T14:54:00Z,25.0840,-81.0960,-1.0,29.2,2 
COMPS,ioos:station:USF.COMPS:NFB:1,2009-06-01T15:00:00Z,25.0840,-81.0960,-1.0,29.23,2 
COMPS,ioos:station:USF.COMPS:NFB:1,2009-06-01T15:06:00Z,25.0840,-81.0960,-1.0,29.25,2 
COMPS,ioos:station:USF.COMPS:NFB:1,2009-06-01T15:12:00Z,25.0840,-81.0960,-1.0,29.26,2 
COMPS,ioos:station:USF.COMPS:NFB:1,2009-06-01T15:18:00Z,25.0840,-81.0960,-1.0,29.27,2 
COMPS,ioos:station:USF.COMPS:NFB:1,2009-06-01T15:24:00Z,25.0840,-81.0960,-1.0,29.27,2 
COMPS,ioos:station:USF.COMPS:NFB:1,2009-06-01T15:30:00Z,25.0840,-81.0960,-1.0,29.29,2 
COMPS,ioos:station:USF.COMPS:NFB:1,2009-06-01T15:36:00Z,25.0840,-81.0960,-1.0,29.29,2 
COMPS,ioos:station:USF.COMPS:NFB:1,2009-06-01T15:42:00Z,25.0840,-81.0960,-1.0,29.3,2 
COMPS,ioos:station:USF.COMPS:NFB:1,2009-06-01T15:48:00Z,25.0840,-81.0960,-1.0,29.26,2 
COMPS,ioos:station:USF.COMPS:NFB:1,2009-06-01T15:54:00Z,25.0840,-81.0960,-1.0,29.26,2 
COMPS,ioos:station:USF.COMPS:NFB:1,2009-06-01T16:00:00Z,25.0840,-81.0960,-1.0,29.27,2 
COMPS,ioos:station:USF.COMPS:NFB:1,2009-06-01T16:06:00Z,25.0840,-81.0960,-1.0,29.32,2 
COMPS,ioos:station:USF.COMPS:NFB:1,2009-06-01T16:12:00Z,25.0840,-81.0960,-1.0,29.35,2 
COMPS,ioos:station:USF.COMPS:NFB:1,2009-06-01T16:18:00Z,25.0840,-81.0960,-1.0,29.35,2 
COMPS,ioos:station:USF.COMPS:NFB:1,2009-06-01T16:24:00Z,25.0840,-81.0960,-1.0,29.34,2 
COMPS,ioos:station:USF.COMPS:NFB:1,2009-06-01T16:30:00Z,25.0840,-81.0960,-1.0,29.36,2 
COMPS,ioos:station:USF.COMPS:NFB:1,2009-06-01T16:36:00Z,25.0840,-81.0960,-1.0,29.39,2 
COMPS,ioos:station:USF.COMPS:NFB:1,2009-06-01T16:42:00Z,25.0840,-81.0960,-1.0,29.43,2 
COMPS,ioos:station:USF.COMPS:NFB:1,2009-06-01T16:48:00Z,25.0840,-81.0960,-1.0,29.5,2 
COMPS,ioos:station:USF.COMPS:NFB:1,2009-06-01T16:54:00Z,25.0840,-81.0960,-1.0,29.54,2 
COMPS,ioos:station:USF.COMPS:NFB:1,2009-06-01T17:00:00Z,25.0840,-81.0960,-1.0,29.54,2 
COMPS,ioos:station:USF.COMPS:NFB:1,2009-06-01T17:06:00Z,25.0840,-81.0960,-1.0,29.56,2 
COMPS,ioos:station:USF.COMPS:NFB:1,2009-06-01T17:12:00Z,25.0840,-81.0960,-1.0,29.57,2 
COMPS,ioos:station:USF.COMPS:NFB:1,2009-06-01T17:18:00Z,25.0840,-81.0960,-1.0,29.58,2 
COMPS,ioos:station:USF.COMPS:NFB:1,2009-06-01T17:24:00Z,25.0840,-81.0960,-1.0,29.6,2 
COMPS,ioos:station:USF.COMPS:NFB:1,2009-06-01T17:30:00Z,25.0840,-81.0960,-1.0,29.62,2 
COMPS,ioos:station:USF.COMPS:NFB:1,2009-06-01T17:36:00Z,25.0840,-81.0960,-1.0,29.65,2 
COMPS,ioos:station:USF.COMPS:NFB:1,2009-06-01T17:42:00Z,25.0840,-81.0960,-1.0,29.69,2 
COMPS,ioos:station:USF.COMPS:NFB:1,2009-06-01T17:48:00Z,25.0840,-81.0960,-1.0,29.74,2 
COMPS,ioos:station:USF.COMPS:NFB:1,2009-06-01T17:54:00Z,25.0840,-81.0960,-1.0,29.8,2 
COMPS,ioos:station:USF.COMPS:NFB:1,2009-06-01T18:00:00Z,25.0840,-81.0960,-1.0,29.83,2 
COMPS,ioos:station:USF.COMPS:NFB:1,2009-06-01T18:06:00Z,25.0840,-81.0960,-1.0,29.87,2 
COMPS,ioos:station:USF.COMPS:NFB:1,2009-06-01T18:12:00Z,25.0840,-81.0960,-1.0,29.89,2 
COMPS,ioos:station:USF.COMPS:NFB:1,2009-06-01T18:18:00Z,25.0840,-81.0960,-1.0,29.89,2 
COMPS,ioos:station:USF.COMPS:NFB:1,2009-06-01T18:24:00Z,25.0840,-81.0960,-1.0,29.89,2 
COMPS,ioos:station:USF.COMPS:NFB:1,2009-06-01T18:30:00Z,25.0840,-81.0960,-1.0,29.89,2 
COMPS,ioos:station:USF.COMPS:NFB:1,2009-06-01T18:36:00Z,25.0840,-81.0960,-1.0,29.9,2 
COMPS,ioos:station:USF.COMPS:NFB:1,2009-06-01T18:42:00Z,25.0840,-81.0960,-1.0,29.91,2 
COMPS,ioos:station:USF.COMPS:NFB:1,2009-06-01T18:48:00Z,25.0840,-81.0960,-1.0,29.91,2 
COMPS,ioos:station:USF.COMPS:NFB:1,2009-06-01T18:54:00Z,25.0840,-81.0960,-1.0,29.93,2 
COMPS,ioos:station:USF.COMPS:NFB:1,2009-06-01T19:00:00Z,25.0840,-81.0960,-1.0,29.97,2 
COMPS,ioos:station:USF.COMPS:NFB:1,2009-06-01T19:06:00Z,25.0840,-81.0960,-1.0,30.04,2 
COMPS,ioos:station:USF.COMPS:NFB:1,2009-06-01T19:12:00Z,25.0840,-81.0960,-1.0,30.09,2 
COMPS,ioos:station:USF.COMPS:NFB:1,2009-06-01T19:18:00Z,25.0840,-81.0960,-1.0,30.11,2 
COMPS,ioos:station:USF.COMPS:NFB:1,2009-06-01T19:24:00Z,25.0840,-81.0960,-1.0,30.13,2 
COMPS,ioos:station:USF.COMPS:NFB:1,2009-06-01T19:30:00Z,25.0840,-81.0960,-1.0,30.12,2 
COMPS,ioos:station:USF.COMPS:NFB:1,2009-06-01T19:36:00Z,25.0840,-81.0960,-1.0,30.09,2 
COMPS,ioos:station:USF.COMPS:NFB:1,2009-06-01T19:42:00Z,25.0840,-81.0960,-1.0,30.07,2 
COMPS,ioos:station:USF.COMPS:NFB:1,2009-06-01T19:48:00Z,25.0840,-81.0960,-1.0,30.06,2 
COMPS,ioos:station:USF.COMPS:NFB:1,2009-06-01T19:54:00Z,25.0840,-81.0960,-1.0,30.05,2 
COMPS,ioos:station:USF.COMPS:NFB:1,2009-06-01T21:00:00Z,25.0840,-81.0960,-1.0,30.11,2 
COMPS,ioos:station:USF.COMPS:NFB:1,2009-06-01T21:06:00Z,25.0840,-81.0960,-1.0,30.13,2 
COMPS,ioos:station:USF.COMPS:NFB:1,2009-06-01T21:12:00Z,25.0840,-81.0960,-1.0,30.14,2 
COMPS,ioos:station:USF.COMPS:NFB:1,2009-06-01T21:18:00Z,25.0840,-81.0960,-1.0,30.16,2 
COMPS,ioos:station:USF.COMPS:NFB:1,2009-06-01T21:24:00Z,25.0840,-81.0960,-1.0,30.18,2 
COMPS,ioos:station:USF.COMPS:NFB:1,2009-06-01T21:30:00Z,25.0840,-81.0960,-1.0,30.19,2 
COMPS,ioos:station:USF.COMPS:NFB:1,2009-06-01T21:36:00Z,25.0840,-81.0960,-1.0,30.2,2 
COMPS,ioos:station:USF.COMPS:NFB:1,2009-06-01T21:42:00Z,25.0840,-81.0960,-1.0,30.21,2 
COMPS,ioos:station:USF.COMPS:NFB:1,2009-06-01T21:48:00Z,25.0840,-81.0960,-1.0,30.22,2 
COMPS,ioos:station:USF.COMPS:NFB:1,2009-06-01T21:54:00Z,25.0840,-81.0960,-1.0,30.22,2 
COMPS,ioos:station:USF.COMPS:NFB:1,2009-06-01T22:00:00Z,25.0840,-81.0960,-1.0,30.23,2 
COMPS,ioos:station:USF.COMPS:NFB:1,2009-06-01T22:06:00Z,25.0840,-81.0960,-1.0,30.24,2 
COMPS,ioos:station:USF.COMPS:NFB:1,2009-06-01T22:12:00Z,25.0840,-81.0960,-1.0,30.22,2 
COMPS,ioos:station:USF.COMPS:NFB:1,2009-06-01T22:18:00Z,25.0840,-81.0960,-1.0,30.19,2 
COMPS,ioos:station:USF.COMPS:NFB:1,2009-06-01T22:24:00Z,25.0840,-81.0960,-1.0,30.17,2 
COMPS,ioos:station:USF.COMPS:NFB:1,2009-06-01T22:30:00Z,25.0840,-81.0960,-1.0,30.16,2 
COMPS,ioos:station:USF.COMPS:NFB:1,2009-06-01T22:36:00Z,25.0840,-81.0960,-1.0,30.18,2 
COMPS,ioos:station:USF.COMPS:NFB:1,2009-06-01T22:42:00Z,25.0840,-81.0960,-1.0,30.24,2 
COMPS,ioos:station:USF.COMPS:NFB:1,2009-06-01T22:48:00Z,25.0840,-81.0960,-1.0,30.3,2 
COMPS,ioos:station:USF.COMPS:NFB:1,2009-06-01T22:54:00Z,25.0840,-81.0960,-1.0,30.3,2 
COMPS,ioos:station:USF.COMPS:NFB:1,2009-06-01T23:00:00Z,25.0840,-81.0960,-1.0,30.71,2 
COMPS,ioos:station:USF.COMPS:NFB:1,2009-06-01T23:06:00Z,25.0840,-81.0960,-1.0,30.77,2 
COMPS,ioos:station:USF.COMPS:NFB:1,2009-06-01T23:12:00Z,25.0840,-81.0960,-1.0,30.71,2 
COMPS,ioos:station:USF.COMPS:NFB:1,2009-06-01T23:18:00Z,25.0840,-81.0960,-1.0,30.66,2 
COMPS,ioos:station:USF.COMPS:NFB:1,2009-06-01T23:24:00Z,25.0840,-81.0960,-1.0,30.64,2 
COMPS,ioos:station:USF.COMPS:NFB:1,2009-06-01T23:30:00Z,25.0840,-81.0960,-1.0,30.65,2 
COMPS,ioos:station:USF.COMPS:NFB:1,2009-06-01T23:36:00Z,25.0840,-81.0960,-1.0,30.65,2 
COMPS,ioos:station:USF.COMPS:NFB:1,2009-06-01T23:42:00Z,25.0840,-81.0960,-1.0,30.65,2 
COMPS,ioos:station:USF.COMPS:NFB:1,2009-06-01T23:48:00Z,25.0840,-81.0960,-1.0,30.63,2 
COMPS,ioos:station:USF.COMPS:NFB:1,2009-06-01T23:54:00Z,25.0840,-81.0960,-1.0,30.6,2 
COMPS,ioos:station:USF.COMPS:NFB:1,2009-06-02T00:00:00Z,25.0840,-81.0960,-1.0,30.58,2 
COMPS,ioos:station:USF.COMPS:NFB:1,2009-06-02T00:06:00Z,25.0840,-81.0960,-1.0,30.55,2 
COMPS,ioos:station:USF.COMPS:NFB:1,2009-06-02T00:12:00Z,25.0840,-81.0960,-1.0,30.53,2 
COMPS,ioos:station:USF.COMPS:NFB:1,2009-06-02T00:18:00Z,25.0840,-81.0960,-1.0,30.51,2 
COMPS,ioos:station:USF.COMPS:NFB:1,2009-06-02T00:24:00Z,25.0840,-81.0960,-1.0,30.49,2 
COMPS,ioos:station:USF.COMPS:NFB:1,2009-06-02T00:30:00Z,25.0840,-81.0960,-1.0,30.46,2 
COMPS,ioos:station:USF.COMPS:NFB:1,2009-06-02T00:36:00Z,25.0840,-81.0960,-1.0,30.45,2 
COMPS,ioos:station:USF.COMPS:NFB:1,2009-06-02T00:42:00Z,25.0840,-81.0960,-1.0,30.43,2 
COMPS,ioos:station:USF.COMPS:NFB:1,2009-06-02T00:48:00Z,25.0840,-81.0960,-1.0,30.37,2 
COMPS,ioos:station:USF.COMPS:NFB:1,2009-06-02T00:54:00Z,25.0840,-81.0960,-1.0,30.34,2 
COMPS,ioos:station:USF.COMPS:NFB:1,2009-06-02T01:00:00Z,25.0840,-81.0960,-1.0,30.33,2 
COMPS,ioos:station:USF.COMPS:NFB:1,2009-06-02T01:06:00Z,25.0840,-81.0960,-1.0,30.31,2 
COMPS,ioos:station:USF.COMPS:NFB:1,2009-06-02T01:12:00Z,25.0840,-81.0960,-1.0,30.3,2 
COMPS,ioos:station:USF.COMPS:NFB:1,2009-06-02T01:18:00Z,25.0840,-81.0960,-1.0,30.3,2 
COMPS,ioos:station:USF.COMPS:NFB:1,2009-06-02T01:24:00Z,25.0840,-81.0960,-1.0,30.29,2 
COMPS,ioos:station:USF.COMPS:NFB:1,2009-06-02T01:30:00Z,25.0840,-81.0960,-1.0,30.3,2 
COMPS,ioos:station:USF.COMPS:NFB:1,2009-06-02T01:36:00Z,25.0840,-81.0960,-1.0,30.3,2 
COMPS,ioos:station:USF.COMPS:NFB:1,2009-06-02T01:42:00Z,25.0840,-81.0960,-1.0,30.27,2 
COMPS,ioos:station:USF.COMPS:NFB:1,2009-06-02T01:48:00Z,25.0840,-81.0960,-1.0,30.25,2 
COMPS,ioos:station:USF.COMPS:NFB:1,2009-06-02T01:54:00Z,25.0840,-81.0960,-1.0,30.2,2 
COMPS,ioos:station:USF.COMPS:NFB:1,2009-06-02T02:00:00Z,25.0840,-81.0960,-1.0,30.19,2 
COMPS,ioos:station:USF.COMPS:NFB:1,2009-06-02T02:06:00Z,25.0840,-81.0960,-1.0,30.16,2 
COMPS,ioos:station:USF.COMPS:NFB:1,2009-06-02T02:12:00Z,25.0840,-81.0960,-1.0,30.15,2 
COMPS,ioos:station:USF.COMPS:NFB:1,2009-06-02T02:18:00Z,25.0840,-81.0960,-1.0,30.12,2 
COMPS,ioos:station:USF.COMPS:NFB:1,2009-06-02T02:24:00Z,25.0840,-81.0960,-1.0,30.09,2 
COMPS,ioos:station:USF.COMPS:NFB:1,2009-06-02T02:30:00Z,25.0840,-81.0960,-1.0,30.08,2 
COMPS,ioos:station:USF.COMPS:NFB:1,2009-06-02T02:36:00Z,25.0840,-81.0960,-1.0,30.06,2 
COMPS,ioos:station:USF.COMPS:NFB:1,2009-06-02T02:42:00Z,25.0840,-81.0960,-1.0,30.02,2 
COMPS,ioos:station:USF.COMPS:NFB:1,2009-06-02T02:48:00Z,25.0840,-81.0960,-1.0,30.0,2 
COMPS,ioos:station:USF.COMPS:NFB:1,2009-06-02T02:54:00Z,25.0840,-81.0960,-1.0,29.98,2 
COMPS,ioos:station:USF.COMPS:NFB:1,2009-06-02T03:00:00Z,25.0840,-81.0960,-1.0,29.98,2 
COMPS,ioos:station:USF.COMPS:NFB:1,2009-06-02T03:06:00Z,25.0840,-81.0960,-1.0,29.97,2 
COMPS,ioos:station:USF.COMPS:NFB:1,2009-06-02T03:12:00Z,25.0840,-81.0960,-1.0,29.95,2 
COMPS,ioos:station:USF.COMPS:NFB:1,2009-06-02T03:18:00Z,25.0840,-81.0960,-1.0,29.93,2 
COMPS,ioos:station:USF.COMPS:NFB:1,2009-06-02T03:24:00Z,25.0840,-81.0960,-1.0,29.93,2 
COMPS,ioos:station:USF.COMPS:NFB:1,2009-06-02T03:30:00Z,25.0840,-81.0960,-1.0,29.9,2 
COMPS,ioos:station:USF.COMPS:NFB:1,2009-06-02T03:36:00Z,25.0840,-81.0960,-1.0,29.9,2 
COMPS,ioos:station:USF.COMPS:NFB:1,2009-06-02T03:42:00Z,25.0840,-81.0960,-1.0,29.9,2 
COMPS,ioos:station:USF.COMPS:NFB:1,2009-06-02T03:48:00Z,25.0840,-81.0960,-1.0,29.89,2 
COMPS,ioos:station:USF.COMPS:NFB:1,2009-06-02T03:54:00Z,25.0840,-81.0960,-1.0,29.88,2 
COMPS,ioos:station:USF.COMPS:NFB:1,2009-06-02T04:00:00Z,25.0840,-81.0960,-1.0,29.87,2 
COMPS,ioos:station:USF.COMPS:NFB:1,2009-06-02T04:06:00Z,25.0840,-81.0960,-1.0,29.87,2 
COMPS,ioos:station:USF.COMPS:NFB:1,2009-06-02T04:12:00Z,25.0840,-81.0960,-1.0,29.87,2 
COMPS,ioos:station:USF.COMPS:NFB:1,2009-06-02T04:18:00Z,25.0840,-81.0960,-1.0,29.86,2 
COMPS,ioos:station:USF.COMPS:NFB:1,2009-06-02T04:24:00Z,25.0840,-81.0960,-1.0,29.86,2 
COMPS,ioos:station:USF.COMPS:NFB:1,2009-06-02T04:30:00Z,25.0840,-81.0960,-1.0,29.87,2 